Regional Weather Roundup
Issued by NWS

Home | Current Version | Previous Version | Graphics & Text | Print | Product List | Glossary On
Versions: 1 2 3 4 5 6 7 8 9 10 11 12 13 14 15 16 17 18 19 20 21 22 23 24 25 26 27 28 29 30 31 32 33 34 35 36 37 38 39 40 41 42 43 44 45 46 47 48 49 50
000
ASUS43 KMPX 231101
RWRMN
WEATHER ROUNDUP FOR MINNESOTA
NATIONAL WEATHER SERVICE TWIN CITIES/CHANHASSEN MN
600 AM CDT TUE AUG 23 2016


NOTE: "FAIR" INDICATES FEW OR NO CLOUDS BELOW 12,000 FEET WITH NO
SIGNIFICANT WEATHER AND/OR OBSTRUCTIONS TO VISIBILITY. N/A MEANS
CURRENT SKY AND/OR WEATHER CONDITIONS ARE NOT AVAILABLE.

MNZ060>063-068>070-231200-
   Twin Cities Metro

CITY           SKY/WX    TMP DP  RH WIND       PRES   REMARKS
TWIN CITIES    CLEAR     71  59  65 S12       29.94R
ST PAUL        PTCLDY    66  60  81 SE9       29.95R
CRYSTAL        PTCLDY    69  58  67 S10       29.91S
BLAINE         CLEAR     70  61  73 S8        29.93S
LAKEVILLE      CLEAR     63  59  88 SE5       29.96R
EDEN PRAIRIE   PTCLDY    68  60  75 S9        29.93R
LAKEVILLE      CLEAR     63  59  88 SE5       29.96R
SOUTH ST PAUL  CLEAR     65  60  82 SE5       29.96R
LAKE ELMO      FAIR      64  61  88 S7        29.97S
$$
MNZ001>005-007-008-013>017-022>024-027-028-231200-
   Northwest Minnesota

CITY           SKY/WX    TMP DP  RH WIND       PRES   REMARKS
BEMIDJI        CLOUDY    66  61  86 SE9       29.78F
HALLOCK        CLOUDY    70  66  88 SE12      29.62F
ROSEAU         CLOUDY    70  63  78 SE12      29.67F
WARROAD        CLOUDY    66  63  88 E9        29.69F
THIEF RVR FALL CLOUDY    70  63  78 S16       29.69S
CROOKSTON      CLOUDY    70  64  83 S18G24    29.66S
FOSSTON        CLOUDY    66  61  82 S9        29.74F
DETROIT LAKES  PTCLDY    68  61  77 S13       29.77F
MOORHEAD       PTCLDY    70  63  78 S16G23    29.69S
PARK RAPIDS    PTCLDY    66  60  81 SE9       29.81S
MAHNOMEN       FAIR      68  62  80 S9        29.73F
$$
MNZ006-009>011-018-025>026-231200-
   North Central Minnesota

CITY           SKY/WX    TMP DP  RH WIND       PRES   REMARKS
BAUDETTE       CLOUDY    66  64  93 SE10      29.73F
FLAG ISLAND    CLOUDY    70  66  88 CALM      29.72F FOG
INTL FALLS     CLOUDY    63  61  93 SE5       29.81S
WASKISH        CLOUDY    68  63  83 SE7       29.76F
BIG FORK       CLOUDY    66  61  82 S5        29.84S
LONGVILLE      PTCLDY    66  61  82 S8        29.84S
GRAND RAPIDS   CLOUDY    65  61  87 S9        29.88R
ORR            CLOUDY    63  59  88 CALM      29.83F
COOK           CLOUDY    64  61  88 S5        29.87S
WALKER         FAIR      67  60  78 S14       29.81S
$$
MNZ012-019>021-037-231200-
   Northeast Minnesota

CITY           SKY/WX    TMP DP  RH WIND       PRES   REMARKS
DULUTH         CLEAR     66  61  84 SW12      29.91S
ELY            CLOUDY    64  59  82 S6        29.90R
HIBBING        CLOUDY    61  59  93 SE5       29.88S
EVELETH        CLOUDY    63  60  90 CALM      29.91S
DULUTH HARBOR  CLEAR     68  63  83 SW6       29.90S
TWO HARBORS    CLEAR     63  57  82 CALM      29.89F
SILVER BAY     CLEAR     61  59  94 CALM      29.90S
GRAND MARAIS     N/A     62  61  96 CALM      29.91R
G MARAIS ARPRT CLEAR     61  55  82 S5        29.96R
$$
MNZ029>031-032-039>041-046>048-054>057-064-231200-
   West Central Minnesota

CITY           SKY/WX    TMP DP  RH WIND       PRES   REMARKS
FERGUS FALLS     N/A     68  61  77 S15       29.77S
WHEATON        CLEAR     68  63  83 SE9       29.76S
MORRIS         PTCLDY    64  61  88 SE10      29.79S
ALEXANDRIA     PTCLDY    67  59  75 S15       29.84S
ELBOW LAKE     FAIR      65  61  86 E14       29.79R
GLENWOOD       CLOUDY    64  61  88 S9        29.85S
APPLETON       MOCLDY    70  59  68 S6        29.79S
BENSON         MOCLDY    64  57  77 S7        29.82S
ORTONVILLE     MOCLDY    68  59  73 S7        29.78R
MADISON        CLOUDY    68  57  68 S13G20    29.79S
WILLMAR        FAIR      66  63  88 SE7       29.87S
$$
MNZ033>034-036-042>043-049>051-058-059-231200-
   Central Minnesota

CITY           SKY/WX    TMP DP  RH WIND       PRES   REMARKS
ST CLOUD       CLEAR     66  62  87 S9        29.88S
SAUK CENTRE    FAIR      65  60  83 S8        29.85S
PAYNESVILLE      N/A    N/A N/A N/A MISG        N/A
AITKIN         CLEAR     70  59  68 S7        29.86F
PINE RIVER     PTCLDY    64  61  88 SE6       29.88S
BRAINERD       CLEAR     64  60  87 S9        29.86S
LONG PRAIRIE   FAIR      63  59  88 SE7       29.85S
LITTLE FALLS   CLEAR     63  57  82 SE5       29.87S
LITCHFIELD     MOCLDY    66  64  94 S7        29.89S
BUFFALO        PTCLDY    67  59  75 S10       29.92R
MAPLE LAKE     PTCLDY    67  62  85 S9        29.91S
HUTCHINSON     CLOUDY    66  63  89 SE5       29.91S
$$
MNZ037-044-045-052-053-231200-
   East Central Minnesota

CITY           SKY/WX    TMP DP  RH WIND       PRES   REMARKS
PRINCETON      CLEAR     70  61  73 S8        29.91S
MORA           CLEAR     64  59  82 S5        29.93R
CAMBRIDGE      CLEAR     70  57  64 S8        29.90S
RUSH CITY      PTCLDY    63  60  90 S5        29.93S
MOOSE LAKE     CLEAR     63  59  88 S7        29.89S
HINCKLEY       FAIR      63  61  94 SE3       29.93R
CLOQUET        CLEAR     64  57  77 S7        29.91S
MCGREGOR       CLEAR     63  59  88 S7        29.89S
$$
MNZ071>073-080-081-089-090-097-098-231200-
   Southwest Minnesota

CITY           SKY/WX    TMP DP  RH WIND       PRES   REMARKS
MONTEVIDEO     PTCLDY    66  61  82 SW10      29.83F
GRANITE FALLS  CLEAR     68  62  81 S13       29.85S
CANBY          CLEAR     70  60  69 SW12G21   29.82R
MARSHALL       PTCLDY    68  61  78 S16       29.84S
REDWOOD FALLS  PTCLDY    66  60  81 S13       29.87R
OLIVIA         PTCLDY    66  61  82 S10       29.86S
PIPESTONE      PTCLDY    64  61  88 S12       29.87F
WINDOM         CLEAR     66  61  82 S13G18    29.91S
WORTHINGTON    CLEAR     64  60  87 S14G20    29.91F
JACKSON        PTCLDY    64  57  77 S9G16     29.94S
TRACY          CLOUDY    67  62  82 S16G23    29.87S
$$
MNZ065>067-074>077-082>085-091>093-231200-
   South Central Minnesota

CITY           SKY/WX    TMP DP  RH WIND       PRES   REMARKS
MANKATO        PTCLDY    64  57  77 S14       29.94R
NEW ULM          N/A     64  61  88 S13       29.90S
ST JAMES       PTCLDY    61  55  82 S10G16    29.93S
GLENCOE        PTCLDY    66  63  89 S7        29.91S
FARIBAULT      PTCLDY    63  61  94 S5        29.97S
OWATONNA       PTCLDY    63  57  82 S12       29.98S
WASECA         PTCLDY    63  57  82 S12       29.98R
ALBERT LEA     PTCLDY    63  59  88 S9        29.99F
$$
MNZ078>079-086>088-094>096-231200-
   Southeast Minnesota

CITY           SKY/WX    TMP DP  RH WIND       PRES   REMARKS
ROCHESTER      CLOUDY    62  59  90 S10       30.03R
RED WING       CLEAR     68  57  68 CALM      29.98R
DODGE CENTER   PTCLDY    63  57  82 S10       30.00S
WINONA         CLEAR     66  59  77 S3        30.03R
AUSTIN         PTCLDY    61  57  88 S7        30.01S
PRESTON        CLEAR     61  57  87 S7        30.05R
$$
ABBREVIATIONS USED IN REMARKS
   TC - TEMPERATURES IN CELSIUS
  WCI - WIND CHILL INDEX
   HX - HEAT INDEX
  VSB - VISIBILITY
$$




USA.gov is the U.S. government's official web portal to all federal, state and local government web resources and services.